Погода в Красноуральске

Россия / Оренбургская область     51°25′09″N   58°48′25″E
темп.,
°C
ветер,
м/с
пор.,
м/с
влажн.,
%
обл.,
%
осадки,
мм/ч
давл.,
гПа
погр.,
м
13 мая, чт
чт1323:00+16в11435 0.0 102811
02:00+14ююз114535 0.0 102811
05:00+13ссв11524 0.0 102810
08:00+17св11400 0.0 1028149
11:00+22ююв22290 0.0 10281112
14:00+25ю32240 0.0 10271790
17:00+25ююв11215 0.0 10261880
20:00+21вюв22335 0.0 102612
14 мая, пт
пт1423:00+18з11353 0.0 102711
02:00+16ссз22385 0.0 102711
05:00+15ссз22430 0.0 102811
08:00+20с11360 0.0 1028134
11:00+25ююз01260 0.0 10281111
14:00+27юз22200 0.0 10272129
17:00+28юз22200 0.0 10262380
20:00+23зюз33330 0.0 102625
15 мая, сб
сб1523:00+19ссз33400 0.0 102621
02:00+18ссз22430 0.0 102611
05:00+16ссв22480 0.0 102711
08:00+21ссз12390 0.0 1027156
11:00+26зюз01260 0.0 10261034
14:00+28зюз22200 0.0 10252576
17:00+29зсз33215 0.0 10242956
20:00+24зсз46360 0.0 102480
16 мая, вс
вс1623:00+21ссз33360 0.0 102328
02:00+19сз22470 0.0 102311
05:00+17ссз22510 0.0 102411
08:00+22з22430 0.0 1025185
11:00+27з22290 0.0 1024970
14:00+30зюз33235 0.0 10223056
17:00+30зюз23225 0.0 10213149
20:00+25ююз223683 0.0 102124
17 мая, пн
пн1723:00+21ссв44484 0.0 102150
02:00+18ссз115610 0.0 102111
05:00+18ссз33525 0.0 102125
08:00+22ссз11424 0.0 1022182
11:00+28сз01294 0.0 1021854
14:00+30юз122173 0.0 10193752
17:00+30сз752533 0.0 10181879
20:00+22з35515 0.1 101994